Regional Weather Roundup
Issued by NWS Charleston, SC

Home | Current Version | Previous Version | Text Only | Print | Product List | Glossary On
Versions: 1 2 3 4 5 6 7 8 9 10 11 12 13 14 15 16 17 18 19 20 21 22 23 24 25 26 27 28 29 30 31 32 33 34 35 36 37 38 39 40 41 42 43 44 45 46 47 48 49 50
000
ASUS42 KCHS 231626
RWRCHS

REGIONAL WEATHER ROUNDUP
NATIONAL WEATHER SERVICE CHARLESTON SC
1100 AM EST THU FEB 23 2017

NOTE: "FAIR" INDICATES FEW OR NO CLOUDS BELOW 12,000 FEET WITH NO
SIGNIFICANT WEATHER AND/OR OBSTRUCTIONS TO VISIBILITY.

NOT ALL STATIONS ARE QUALITY CONTROLLED. USE DATA WITH CAUTION...
ESPECIALLY DEWPOINT OBSERVATIONS.

SCZ027-030-031-034>040-042>050-231700-
...SOUTHEAST SOUTH CAROLINA...

CITY           SKY/WX    TMP DP  RH WIND       PRES   REMARKS
N CHARLESTON   PTSUNNY   74  59  59 NE14      29.88S
WATERFRONT PRK   N/A     68  62  81 E15       29.86F
MOUNT PLEASANT FAIR      73  63  68 NE5       29.88S
JOHNS ISLAND     N/A     73  61  64 NE16G24   29.87S
PINOPOLIS        N/A     63  59  88 NE6       29.82R
MONCKS CORNER  CLOUDY    70  57  64 NE12      29.90S
SUMMERVILLE    FAIR      72  59  64 E10       29.90F
BEAUFORT MCAS  MOSUNNY   74  62  66 NE12      29.87S
BEAUFORT ARPT  FAIR      72  61  68 NE13G21   29.86F
HILTON HEAD IS MOSUNNY   72  63  73 NE12G21   29.86S
WALTERBORO     MOSUNNY   72  57  60 E10G17    29.90S
ALLENDALE      FAIR      73  59  60 VRB7G14   29.88F

...SOUTHERN MIDLANDS AND PEE DEE...

CITY           SKY/WX    TMP DP  RH WIND       PRES   REMARKS
GEORGETOWN     CLOUDY    68  59  73 E13       29.92S
KINGSTREE      FAIR      70  55  60 E6        29.92S
ORANGEBURG     SUNNY     71  56  58 E8        29.91F
BARNWELL       FAIR      73  59  60 E12G18    29.90F
AIKEN          PTSUNNY   72  54  53 NE10      29.94F
MANNING        FAIR      70  45  40 MISG      29.91F
COLUMBIA       MOSUNNY   71  55  56 NE7       29.92F
SUMTER         MOSUNNY   72  55  54 NE10      29.90F
FLORENCE       SUNNY     71  58  63 E12       29.93F
MYRTLE BEACH   NOT AVBL
N MYRTLE BEACH CLOUDY    71  59  65 E14G20    29.93S

$$

GAZ063-065-086>088-099>101-113>116-118-119-134>141-150-231700-
...SOUTHEAST GEORGIA...

CITY           SKY/WX    TMP DP  RH WIND       PRES   REMARKS
SAVANNAH ARPT  CLOUDY    71  60  68 NE13      29.86S
HUNTER AAF     MOSUNNY   71  65  82 NE10      29.83S
FORT STEWART   CLOUDY    70  61  73 N9        29.84R
STATESBORO     SUNNY     73  63  70 E8        29.87F
SYLVANIA       MOSUNNY  N/A N/A N/A E8        29.89S
CLAXTON        FAIR     N/A N/A N/A N14       29.86F

...CSRA...CENTRAL AND FAR SOUTHEAST GEORGIA...

CITY           SKY/WX    TMP DP  RH WIND       PRES   REMARKS
THOMSON        SUNNY     72  60  64 SE6       29.95F
AUGUSTA-BUSH   MOSUNNY   74  58  57 E8        29.90F
AUGUSTA-DANIEL SUNNY     72  55  55 E9        29.92F
SWAINSBORO     FAIR      70  59  68 NE9       29.89F
VIDALIA        MOSUNNY   73  64  73 E14       29.86F
EASTMAN        PTSUNNY   76  49  39 NE7       29.90F
HAZLEHURST     FAIR      73  64  75 NE9       29.85S
ALMA           MOSUNNY   72  63  73 NE8       29.84F
WAYCROSS       PTSUNNY   75  67  76 E14G22    29.83S
JESUP          PTSUNNY   73  61  64 NE14      29.84F
BAXLEY         FAIR      73  66  78 NE15      29.84F
BRUNSWICK      CLOUDY    72  66  83 NE16G23   29.83S
SAINT SIMONS   CLOUDY    69  62  78 N21       29.81R

$$

SCZ027-028-034-036>038-045-046-048>050-GAZ119-141-231700-
...LAKE AND SUPPLEMENTAL COASTAL OBSERVATIONS...

STATION/POSITION TIME  TEMP    WIND        PRES    WAVE   SWELL
                       AIR SEA DIR/SP/G            HT/PER HT/PER/DIR
                 (UTC) (F)     (DEG/KT/KT) (MB)    (FT/S) (FT/S/D)
WINYAH BAY       1530   64      60/ 13     1013.0S
LAKE MURRAY      1550   65     150/  3/  5 1013.2F
ACE BASIN NERRS  1545   72      50/  7     1011.0S
FORT PULASKI     1600   68 61   60/ 13/ 16 1010.9
SAPELO ISLAND    1600   70      30/ 15     1010.0

$$

ANZ835-935-AMZ111-154-330-350-352-354-370-450-454-472-231700-
...C-MAN AND BUOY OBSERVATIONS...

STATION/POSITION TIME  TEMP    WIND        PRES    WAVE   SWELL
                       AIR SEA DIR/SP/G            HT/PER HT/PER/DIR
                 (UTC) (F)     (DEG/KT/KT) (MB)    (FT/S) (FT/S/D)
BUOY 41004       1550   70 69   60/ 16/ 19 1010.7S   8/ 9   5/130/ 9
BUOY 41008       1550   63 63   40/ 19/ 23 1008.9R   7/ 8   3/120/ 8
FOLLY BEACH CMAN 1600   64      50/ 16/ 18 1012.1F
CAPERS NEARSHORE 1508   62 59   40/ 14/ 16 1012.0R
FRIPP NEARSHORE  1608   64 61   50/ 16/ 19 1010.8S


STATION/POSITION TIME  TEMP    WIND        PRES    WAVE   SWELL
                       AIR SEA DIR/SP/G            HT/PER HT/PER/DIR
                 (UTC) (F)     (DEG/KT/KT) (MB)    (FT/S) (FT/S/D)
5E ST. MARYS GA  1600      64                N/A     8/ 9   2/110/11
FRYING PAN BUOY  1610   71 69  100/ 12/ 17 1013.0
BUOY 41025       1550   71 74  130/ 12/ 14 1015.1R   4/ 5   2/ 60/11
CAPE LOOKOUT NC  1600   67      40/  5/  5 1014.4S
BUOY 41002       1550   69 70  100/ 19/ 23 1012.8F   7/ 7   2/ 50/10
BUOY 41010       NOT AVBL
ST AUGUSTINE FL  1600   67 67   30/ 26/ 30 1007.1R


$$



USA.gov is the U.S. government's official web portal to all federal, state and local government web resources and services.